| time (UTC) | temp C | wind direction | speed KPH | gust KPH | rain 1hr cm | rain 24hr cm | rain mn cm | humidity % | barometer mb |
| 20260507231515 | 13 | 128 | 0.0 | 0.0 | 0.00 | 0.00 | 0.00 | 79 | 1015.4 |
| 20260507230005 | 13 | 128 | 0.0 | 0.0 | 0.00 | 0.00 | 0.00 | 79 | 1015.3 |
| 20260507224504 | 13 | 128 | 0.0 | 0.0 | 0.00 | 0.00 | 0.00 | 78 | 1015.3 |
| 20260507223002 | 14 | 128 | 0.0 | 0.0 | 0.00 | 0.00 | 0.00 | 77 | 1015.3 |
| 20260507221603 | 13 | 128 | 0.0 | 0.0 | 0.00 | 0.00 | 0.00 | 78 | 1015.3 |
| 20260507220059 | 13 | 128 | 0.0 | 0.0 | 0.00 | 0.00 | 0.00 | 78 | 1015.3 |
| 20260507214557 | 14 | 128 | 0.0 | 0.0 | 0.00 | 0.00 | 0.00 | 77 | 1015.2 |
| 20260507213105 | 14 | 128 | 0.0 | 0.0 | 0.00 | 0.00 | 0.00 | 75 | 1015.0 |
| 20260507211559 | 15 | 128 | 0.0 | 0.0 | 0.00 | 0.00 | 0.00 | 74 | 1014.9 |
| 20260507210054 | 15 | 128 | 0.0 | 0.0 | 0.00 | 0.00 | 0.00 | 73 | 1014.9 |
| 20260507204600 | 15 | 128 | 0.0 | 0.0 | 0.00 | 0.00 | 0.00 | 72 | 1014.8 |
| 20260507203055 | 15 | 128 | 0.0 | 0.0 | 0.00 | 0.00 | 0.00 | 70 | 1014.6 |
| 20260507201602 | 15 | 128 | 0.0 | 0.0 | 0.00 | 0.00 | 0.00 | 70 | 1014.6 |
| 20260507200055 | 15 | 128 | 0.0 | 0.0 | 0.00 | 0.00 | 0.00 | 71 | 1014.6 |
| 20260507194559 | 16 | 128 | 0.0 | 0.0 | 0.00 | 0.00 | 0.00 | 70 | 1014.4 |
| 20260507193051 | 16 | 128 | 0.0 | 0.0 | 0.00 | 0.00 | 0.00 | 68 | 1014.0 |
| 20260507191610 | 16 | 128 | 0.0 | 0.0 | 0.00 | 0.00 | 0.00 | 66 | 1013.6 |
| 20260507190050 | 17 | 128 | 0.0 | 0.0 | 0.00 | 0.00 | 0.00 | 63 | 1013.4 |
| 20260507184557 | 17 | 128 | 0.0 | 0.0 | 0.00 | 0.00 | 0.00 | 62 | 1013.2 |
| 20260507183049 | 17 | 128 | 0.0 | 0.0 | 0.00 | 0.00 | 0.00 | 60 | 1013.1 |
| 20260507181548 | 18 | 128 | 0.0 | 0.0 | 0.00 | 0.00 | 0.00 | 59 | 1012.9 |
| 20260507180048 | 18 | 128 | 0.0 | 0.0 | 0.00 | 0.00 | 0.00 | 57 | 1012.8 |
| 20260507174547 | 18 | 129 | 0.0 | 12.9 | 0.00 | 0.00 | 0.00 | 58 | 1012.6 |
| 20260507173046 | 19 | 113 | 0.0 | 6.4 | 0.00 | 0.00 | 0.00 | 56 | 1012.5 |
| 20260507171550 | 19 | 84 | 0.0 | 9.7 | 0.00 | 0.00 | 0.00 | 55 | 1012.5 |
| 20260507170047 | 20 | 76 | 0.0 | 14.5 | 0.00 | 0.00 | 0.00 | 55 | 1012.4 |
| 20260507164557 | 20 | 136 | 0.0 | 9.7 | 0.00 | 0.00 | 0.00 | 55 | 1012.2 |
| 20260507163043 | 20 | 157 | 0.0 | 12.9 | 0.00 | 0.00 | 0.00 | 55 | 1012.1 |
| 20260507161547 | 20 | 136 | 1.6 | 14.5 | 0.00 | 0.00 | 0.00 | 55 | 1012.0 |
| 20260507160047 | 20 | 150 | 1.6 | 12.9 | 0.00 | 0.00 | 0.00 | 55 | 1012.0 |
| 20260507154541 | 20 | 97 | 1.6 | 14.5 | 0.00 | 0.00 | 0.00 | 55 | 1012.1 |
| 20260507153040 | 20 | 137 | 3.2 | 14.5 | 0.00 | 0.00 | 0.00 | 55 | 1012.0 |
| 20260507151540 | 20 | 128 | 1.6 | 20.9 | 0.00 | 0.00 | 0.00 | 56 | 1012.1 |
| 20260507150039 | 20 | 129 | 3.2 | 14.5 | 0.00 | 0.00 | 0.00 | 55 | 1012.2 |
| 20260507144538 | 20 | 149 | 3.2 | 16.1 | 0.00 | 0.03 | 0.00 | 56 | 1012.3 |
| 20260507143055 | 20 | 143 | 1.6 | 20.9 | 0.00 | 0.03 | 0.00 | 55 | 1012.3 |
| 20260507141553 | 20 | 141 | 0.0 | 22.5 | 0.00 | 0.03 | 0.00 | 57 | 1012.4 |
| 20260507140036 | 20 | 136 | 3.2 | 16.1 | 0.00 | 0.03 | 0.00 | 57 | 1012.4 |
| 20260507134534 | 20 | 99 | 0.0 | 17.7 | 0.00 | 0.03 | 0.00 | 56 | 1012.6 |
| 20260507133035 | 20 | 123 | 0.0 | 20.9 | 0.00 | 0.03 | 0.00 | 58 | 1012.8 |
| 20260507131538 | 20 | 119 | 3.2 | 16.1 | 0.00 | 0.03 | 0.00 | 57 | 1012.8 |
| 20260507130039 | 20 | 65 | 1.6 | 17.7 | 0.00 | 0.03 | 0.00 | 57 | 1012.9 |
| 20260507124528 | 20 | 138 | 1.6 | 22.5 | 0.00 | 0.03 | 0.00 | 57 | 1013.1 |
| 20260507123027 | 20 | 146 | 3.2 | 17.7 | 0.00 | 0.03 | 0.00 | 58 | 1013.0 |
| 20260507121527 | 20 | 93 | 0.0 | 16.1 | 0.00 | 0.03 | 0.00 | 58 | 1013.2 |
| 20260507120025 | 19 | 126 | 3.2 | 27.4 | 0.00 | 0.03 | 0.00 | 58 | 1013.4 |
| 20260507114528 | 19 | 132 | 3.2 | 14.5 | 0.00 | 0.05 | 0.00 | 60 | 1013.4 |
| 20260507113024 | 19 | 128 | 0.0 | 16.1 | 0.00 | 0.05 | 0.00 | 60 | 1013.5 |
| 20260507111523 | 19 | 94 | 3.2 | 14.5 | 0.00 | 0.05 | 0.00 | 59 | 1013.6 |
| 20260507110022 | 19 | 43 | 1.6 | 16.1 | 0.00 | 0.05 | 0.00 | 61 | 1013.8 |
| 20260507104522 | 19 | 105 | 1.6 | 17.7 | 0.00 | 0.05 | 0.00 | 61 | 1013.9 |
| 20260507103018 | 18 | 134 | 3.2 | 19.3 | 0.00 | 0.05 | 0.00 | 60 | 1014.0 |
| 20260507101518 | 18 | 138 | 1.6 | 12.9 | 0.00 | 0.05 | 0.00 | 62 | 1014.2 |
| 20260507100016 | 18 | 103 | 1.6 | 16.1 | 0.00 | 0.05 | 0.00 | 62 | 1014.4 |
| 20260507094515 | 18 | 111 | 0.0 | 12.9 | 0.00 | 0.08 | 0.00 | 63 | 1014.5 |
| 20260507093013 | 18 | 63 | 0.0 | 12.9 | 0.00 | 0.08 | 0.00 | 61 | 1014.5 |
| 20260507091514 | 17 | 69 | 1.6 | 9.7 | 0.00 | 0.08 | 0.00 | 61 | 1014.4 |
| 20260507090008 | 17 | 250 | 0.0 | 6.4 | 0.00 | 0.08 | 0.00 | 66 | 1014.5 |
| 20260507084505 | 16 | 258 | 0.0 | 6.4 | 0.00 | 0.64 | 0.00 | 64 | 1014.5 |
| 20260507083102 | 16 | 263 | 0.0 | 4.8 | 0.00 | 0.64 | 0.00 | 62 | 1014.5 |
| 20260507081602 | 15 | 263 | 0.0 | 0.0 | 0.00 | 0.64 | 0.00 | 60 | 1014.6 |
| 20260507080104 | 14 | 263 | 0.0 | 0.0 | 0.00 | 0.64 | 0.00 | 62 | 1014.7 |
| 20260507074551 | 13 | 263 | 0.0 | 1.6 | 0.00 | 1.42 | 0.00 | 63 | 1014.7 |
| 20260507073050 | 13 | 263 | 0.0 | 1.6 | 0.00 | 1.42 | 0.00 | 63 | 1014.7 |
| 20260507071546 | 12 | 263 | 0.0 | 1.6 | 0.00 | 1.42 | 0.00 | 67 | 1014.8 |
| 20260507070044 | 11 | 263 | 0.0 | 0.0 | 0.00 | 1.42 | 0.00 | 71 | 1014.7 |
| 20260507064600 | 11 | 263 | 0.0 | 3.2 | 0.00 | 1.83 | 0.00 | 77 | 1014.8 |
| 20260507063037 | 10 | 263 | 0.0 | 0.0 | 0.00 | 1.83 | 0.00 | 79 | 1014.8 |
| 20260507061535 | 9 | 263 | 0.0 | 0.0 | 0.00 | 1.83 | 0.00 | 81 | 1014.8 |
| 20260507060033 | 8 | 263 | 0.0 | 0.0 | 0.00 | 1.83 | 0.00 | 81 | 1014.7 |
| 20260507054532 | 8 | 263 | 0.0 | 0.0 | 0.00 | 2.31 | 0.00 | 84 | 1014.8 |
| 20260507053031 | 8 | 263 | 0.0 | 0.0 | 0.00 | 2.31 | 0.00 | 85 | 1014.5 |
| 20260507051529 | 8 | 263 | 0.0 | 0.0 | 0.00 | 2.31 | 0.00 | 85 | 1014.3 |
| 20260507050038 | 8 | 263 | 0.0 | 1.6 | 0.00 | 2.31 | 0.00 | 84 | 1014.2 |
| 20260507044526 | 8 | 263 | 0.0 | 6.4 | 0.00 | 2.51 | 0.00 | 84 | 1014.0 |
| 20260507043024 | 7 | 263 | 0.0 | 0.0 | 0.00 | 2.51 | 0.00 | 86 | 1013.7 |
| 20260507041526 | 8 | 263 | 0.0 | 0.0 | 0.00 | 2.51 | 0.00 | 87 | 1013.5 |
| 20260507040019 | 8 | 263 | 0.0 | 0.0 | 0.00 | 2.51 | 0.00 | 87 | 1013.5 |
| 20260507034519 | 8 | 263 | 0.0 | 0.0 | 0.00 | 2.51 | 0.00 | 87 | 1013.4 |
| 20260507033020 | 8 | 263 | 0.0 | 0.0 | 0.00 | 2.51 | 0.00 | 86 | 1013.4 |
| 20260507031516 | 8 | 263 | 0.0 | 0.0 | 0.00 | 2.51 | 0.00 | 86 | 1013.4 |
| 20260507030024 | 8 | 263 | 0.0 | 0.0 | 0.00 | 2.51 | 0.00 | 84 | 1013.4 |
| 20260507024517 | 8 | 263 | 0.0 | 0.0 | 0.00 | 2.51 | 0.00 | 83 | 1013.3 |
| 20260507023011 | 8 | 263 | 0.0 | 0.0 | 0.00 | 2.51 | 0.00 | 84 | 1013.3 |
| 20260507021511 | 8 | 263 | 0.0 | 0.0 | 0.00 | 2.51 | 0.00 | 86 | 1013.4 |
| 20260507020009 | 8 | 263 | 0.0 | 0.0 | 0.00 | 2.51 | 0.00 | 86 | 1013.4 |
| 20260507014511 | 8 | 263 | 0.0 | 0.0 | 0.00 | 2.51 | 0.00 | 85 | 1013.2 |
| 20260507013011 | 9 | 263 | 0.0 | 0.0 | 0.00 | 2.51 | 0.00 | 85 | 1013.1 |
| 20260507011505 | 9 | 263 | 0.0 | 0.0 | 0.00 | 2.51 | 0.00 | 86 | 1013.0 |
| 20260507010004 | 9 | 263 | 0.0 | 0.0 | 0.00 | 2.51 | 0.00 | 85 | 1013.0 |
| 20260507004501 | 9 | 263 | 0.0 | 0.0 | 0.00 | 2.51 | 0.00 | 85 | 1012.9 |
| 20260507003059 | 9 | 263 | 0.0 | 0.0 | 0.00 | 2.51 | 0.00 | 85 | 1012.9 |
| 20260507001608 | 9 | 263 | 0.0 | 0.0 | 0.00 | 2.51 | 0.00 | 86 | 1012.8 |
| 20260507000056 | 9 | 263 | 0.0 | 0.0 | 0.00 | 2.51 | 0.00 | 86 | 1012.5 |
| 20260506234559 | 10 | 263 | 0.0 | 0.0 | 0.00 | 2.51 | 0.00 | 87 | 1012.3 |
| 20260506233055 | 10 | 263 | 0.0 | 0.0 | 0.00 | 2.51 | 0.00 | 87 | 1012.3 |